Powrót do katalogu

FENGYUN 1C DEB

AktywnyPO
NORAD 31218·DEBRIS·🇨🇳 China

Wystrzelony May 10, 1999 z Taiyuan Satellite Launch Center

Loading…

Następne Przeloty (najbliższe 24 godziny)

TLE

ŚwieżeSource: Space-Track

Epoka: Sep 14, 2026, 15:19 UTC

1 31218U 99025BKY 26257.63824188  .00032116  00000-0  31674-2 0  9998
2 31218  98.8416  41.6565 0009950 240.9074 119.1146 14.91889577 10855

Śledź FENGYUN 1C DEB w czasie rzeczywistym z AllMySat

Download on the App Store